• In Kazakhstan
  • List of Countries
  • For 7 days
  • Water Temperature
  • Satellite Maps
  • Weather Map
  • News
  • Weather Widgets
  • user-avatar
    Login

    Hourly Weather Batina

    Today, 12 November, Monday

    Time Temperature Precipitation Wind Pressure Humidity
    00:00 +10°C° 0 mm 3 mps 673 mmHg 61%
    01:00 +10°C° 0 mm 2 mps 673 mmHg 62%
    02:00 +10°C° 0 mm 2 mps 673 mmHg 64%
    03:00 +9°C° 0 mm 2 mps 673 mmHg 65%
    04:00 +9°C° 0 mm 2 mps 673 mmHg 66%
    05:00 +9°C° 0 mm 2 mps 673 mmHg 67%
    06:00 +8°C° 0 mm 2 mps 673 mmHg 69%
    07:00 +10°C° 0 mm 2 mps 674 mmHg 63%
    08:00 +13°C° 0 mm 2 mps 674 mmHg 58%
    09:00 +14°C° 0 mm 2 mps 675 mmHg 52%
    10:00 +14°C° 0 mm 3 mps 675 mmHg 49%
    11:00 +17°C° 0 mm 3 mps 675 mmHg 45%
    12:00 +18°C° 0 mm 3 mps 675 mmHg 41%
    13:00 +18°C° 0 mm 3 mps 675 mmHg 42%
    14:00 +18°C° 0 mm 3 mps 675 mmHg 42%
    15:00 +18°C° 0 mm 3 mps 674 mmHg 43%
    16:00 +16°C° 0 mm 3 mps 674 mmHg 50%
    17:00 +15°C° 0 mm 2 mps 674 mmHg 56%
    18:00 +14°C° 0 mm 2 mps 674 mmHg 62%
    19:00 +13°C° 0 mm 2 mps 674 mmHg 66%
    20:00 +13°C° 0 mm 2 mps 674 mmHg 69%
    21:00 +12°C° 0 mm 2 mps 674 mmHg 73%
    22:00 +12°C° 0 mm 2 mps 674 mmHg 76%
    23:00 +12°C° 0 mm 2 mps 674 mmHg 78%

    Tomorrow, 13 November, Tuesday

    Time Temperature Precipitation Wind Pressure Humidity
    00:00 +12°C° 0 mm 2 mps 674 mmHg 81%
    01:00 +11°C° 0 mm 1 mps 674 mmHg 83%
    02:00 +11°C° 0 mm 1 mps 674 mmHg 85%
    03:00 +11°C° 0 mm 1 mps 674 mmHg 87%
    04:00 +11°C° 0 mm 1 mps 674 mmHg 88%
    05:00 +10°C° 0 mm 1 mps 674 mmHg 89%
    06:00 +10°C° 0 mm 1 mps 674 mmHg 90%
    07:00 +12°C° 0 mm 1 mps 675 mmHg 83%
    08:00 +13°C° 0 mm 1 mps 676 mmHg 76%
    09:00 +15°C° 0 mm 1 mps 676 mmHg 70%
    10:00 +16°C° 0 mm 1 mps 676 mmHg 64%
    11:00 +18°C° 0 mm 1 mps 677 mmHg 57%
    12:00 +18°C° 0 mm 2 mps 677 mmHg 51%
    13:00 +18°C° 0 mm 2 mps 676 mmHg 49%
    14:00 +18°C° 0 mm 2 mps 676 mmHg 47%
    15:00 +18°C° 0 mm 2 mps 676 mmHg 46%
    16:00 +17°C° 0 mm 2 mps 676 mmHg 50%
    17:00 +16°C° 0 mm 2 mps 676 mmHg 54%
    18:00 +15°C° 0 mm 2 mps 676 mmHg 59%
    19:00 +15°C° 0 mm 2 mps 676 mmHg 62%
    20:00 +14°C° 0 mm 2 mps 676 mmHg 65%
    21:00 +14°C° 0 mm 2 mps 676 mmHg 68%
    22:00 +14°C° 0 mm 1 mps 676 mmHg 71%
    23:00 +13°C° 0 mm 1 mps 676 mmHg 74%

    Day after tomorrow, 14 November, Wednesday

    Time Temperature Precipitation Wind Pressure Humidity
    00:00 +13°C° 0 mm 1 mps 676 mmHg 77%
    01:00 +12°C° 0 mm 1 mps 675 mmHg 78%
    02:00 +12°C° 0 mm 1 mps 675 mmHg 80%
    03:00 +12°C° 0 mm 1 mps 675 mmHg 82%
    04:00 +12°C° 0 mm 1 mps 675 mmHg 83%
    05:00 +11°C° 0 mm 1 mps 675 mmHg 84%
    06:00 +11°C° 0 mm 1 mps 675 mmHg 84%
    07:00 +12°C° 0 mm 1 mps 675 mmHg 77%
    08:00 +14°C° 0 mm 1 mps 676 mmHg 69%
    09:00 +16°C° 0 mm 2 mps 677 mmHg 61%
    10:00 +16°C° 0 mm 2 mps 676 mmHg 55%
    11:00 +17°C° 0 mm 3 mps 676 mmHg 50%
    12:00 +18°C° 0 mm 3 mps 676 mmHg 44%
    13:00 +19°C° 0 mm 4 mps 676 mmHg 44%
    14:00 +19°C° 0 mm 4 mps 675 mmHg 43%
    15:00 +19°C° 0 mm 4 mps 675 mmHg 43%
    16:00 +18°C° 0 mm 4 mps 675 mmHg 50%
    17:00 +16°C° 0 mm 3 mps 674 mmHg 57%
    18:00 +14°C° 0 mm 3 mps 674 mmHg 63%
    19:00 +15°C° 0 mm 2 mps 674 mmHg 67%
    20:00 +14°C° 0 mm 2 mps 674 mmHg 71%
    21:00 +13°C° 0 mm 2 mps 674 mmHg 76%
    22:00 +13°C° 0 mm 2 mps 674 mmHg 77%
    23:00 +13°C° 0 mm 2 mps 673 mmHg 79%

    15 November, Thursday

    Time Temperature Precipitation Wind Pressure Humidity
    00:00 +12°C° 0 mm 2 mps 673 mmHg 81%
    01:00 +12°C° 0 mm 2 mps 673 mmHg 81%
    02:00 +12°C° 0 mm 2 mps 672 mmHg 81%
    03:00 +12°C° 0 mm 2 mps 672 mmHg 81%
    04:00 +12°C° 0 mm 2 mps 672 mmHg 80%
    05:00 +12°C° 0 mm 2 mps 672 mmHg 78%
    06:00 +12°C° 0 mm 2 mps 672 mmHg 77%
    07:00 +13°C° 0 mm 2 mps 672 mmHg 71%
    08:00 +14°C° 0 mm 2 mps 673 mmHg 64%
    09:00 +15°C° 0 mm 2 mps 673 mmHg 58%
    10:00 +16°C° 0 mm 2 mps 673 mmHg 54%
    11:00 +17°C° 0 mm 2 mps 673 mmHg 50%
    12:00 +18°C° 0 mm 2 mps 673 mmHg 46%
    13:00 +18°C° 0 mm 3 mps 672 mmHg 45%
    14:00 +19°C° 0 mm 3 mps 672 mmHg 43%
    15:00 +19°C° 0 mm 3 mps 672 mmHg 42%
    16:00 +18°C° 0.1 mm 3 mps 672 mmHg 47%
    17:00 +17°C° 0.1 mm 3 mps 671 mmHg 51%
    18:00 +16°C° 0.1 mm 2 mps 671 mmHg 55%
    19:00 +15°C° 0 mm 2 mps 671 mmHg 58%
    20:00 +15°C° 0 mm 2 mps 671 mmHg 61%
    21:00 +14°C° 0 mm 2 mps 671 mmHg 64%
    22:00 +14°C° 0 mm 1 mps 671 mmHg 65%
    23:00 +13°C° 0 mm 1 mps 671 mmHg 67%

    16 November, Friday

    Time Temperature Precipitation Wind Pressure Humidity
    00:00 +13°C° 0 mm 1 mps 670 mmHg 69%
    01:00 +12°C° 0 mm 1 mps 670 mmHg 70%
    02:00 +12°C° 0 mm 1 mps 670 mmHg 71%
    03:00 +12°C° 0 mm 1 mps 670 mmHg 72%
    04:00 +11°C° 0 mm 1 mps 669 mmHg 72%
    05:00 +11°C° 0 mm 1 mps 669 mmHg 73%
    06:00 +11°C° 0 mm 1 mps 669 mmHg 74%
    07:00 +12°C° 0 mm 1 mps 670 mmHg 67%
    08:00 +14°C° 0 mm 1 mps 671 mmHg 59%
    09:00 +16°C° 0 mm 1 mps 671 mmHg 52%
    10:00 +16°C° 0 mm 1 mps 671 mmHg 48%
    11:00 +18°C° 0 mm 1 mps 671 mmHg 45%
    12:00 +19°C° 0 mm 1 mps 671 mmHg 41%
    13:00 +18°C° 0 mm 2 mps 671 mmHg 41%
    14:00 +18°C° 0 mm 2 mps 670 mmHg 40%
    15:00 +18°C° 0 mm 2 mps 670 mmHg 39%
    16:00 +17°C° 0 mm 2 mps 670 mmHg 44%
    17:00 +16°C° 0 mm 2 mps 670 mmHg 49%
    18:00 +15°C° 0 mm 2 mps 670 mmHg 54%
    19:00 +15°C° 0 mm 2 mps 670 mmHg 58%
    20:00 +14°C° 0 mm 2 mps 670 mmHg 62%
    21:00 +13°C° 0 mm 1 mps 670 mmHg 66%
    22:00 +13°C° 0 mm 1 mps 669 mmHg 68%
    23:00 +13°C° 0 mm 1 mps 669 mmHg 70%

    17 November, Saturday

    Time Temperature Precipitation Wind Pressure Humidity
    00:00 +12°C° 0 mm 1 mps 669 mmHg 72%
    01:00 +12°C° 0 mm 1 mps 669 mmHg 73%
    02:00 +12°C° 0 mm 1 mps 668 mmHg 74%
    03:00 +12°C° 0 mm 1 mps 668 mmHg 75%
    04:00 +11°C° 0 mm 1 mps 668 mmHg 76%
    05:00 +11°C° 0 mm 1 mps 668 mmHg 78%
    06:00 +11°C° 0 mm 1 mps 668 mmHg 79%
    07:00 +11°C° 0.1 mm 1 mps 668 mmHg 76%
    08:00 +12°C° 0.1 mm 1 mps 669 mmHg 72%
    09:00 +13°C° 0.1 mm 2 mps 669 mmHg 69%
    10:00 +13°C° 0.1 mm 2 mps 669 mmHg 66%
    11:00 +14°C° 0.1 mm 2 mps 669 mmHg 63%
    12:00 +14°C° 0.1 mm 3 mps 668 mmHg 60%
    13:00 +13°C° 0.4 mm 3 mps 668 mmHg 61%
    14:00 +13°C° 0.4 mm 3 mps 668 mmHg 63%
    15:00 +13°C° 0.4 mm 3 mps 668 mmHg 64%
    16:00 +12°C° 0.2 mm 3 mps 668 mmHg 67%
    17:00 +12°C° 0.2 mm 3 mps 668 mmHg 71%
    18:00 +11°C° 0.2 mm 3 mps 668 mmHg 74%
    19:00 +10°C° 0 mm 2 mps 668 mmHg 77%
    20:00 +10°C° 0 mm 2 mps 668 mmHg 79%
    21:00 +9°C° 0 mm 2 mps 668 mmHg 82%
    22:00 +9°C° 0 mm 2 mps 668 mmHg 82%
    23:00 +9°C° 0 mm 2 mps 668 mmHg 83%
    Show more